Location: Bartshausen
(51.8454°N, 9.8167°E)
Time: 10:58:27
(UTC+00:00)

Iridium 4 Rocket - Pass Details

Date: 23 February 2026
Orbit: 579 x 887 km, 86.9° (Epoch: 8 March)

Event Time Altitude Azimuth Distance (km) Brightness Sun altitude
Rises 19:17:54 0° 351° (N) 2,972 6.9 -23.4°
Reaches altitude 10° 19:20:18 10° 344° (NNW) 2,016 6.1 -23.8°
Maximum altitude 19:24:24 39° 276° (W) 906 4.3 -24.4°
Drops below altitude 10° 19:28:16 10° 206° (SSW) 1,907 5.7 -25.0°
Sets 19:30:30 0° 199° (SSW) 2,790 6.4 -25.3°
